Temperature
25 25 24 24 25 25 25 25 24 25 25 25 24 24 24 24 24 24 23 23 22 22 22 21 20 20 20 20 20 19 19 19 18 18 18 17 17 17 17 17 17 16 16 16
25 24 25 26 26 25 25 24 24 25 26 25 24 24 25 24 24 24 23 23 22 22 21 21 21 20 20 20 19 19 19 19 18 18 18 17 17 17 17 17 16 16 16 16
24 25 26 25 25 25 25 24 24 24 24 25 24 23 24 25 24 24 24 23 23 22 21 21 20 20 20 19 19 19 19 19 18 18 17 17 17 17 16 16 16 16 16 16
25 26 25 25 25 24 24 25 25 24 23 23 24 22 23 24 24 24 23 23 23 22 21 20 20 19 19 19 19 19 19 18 18 18 17 17 17 17 16 16 16 16 16 16
24 25 25 24 25 25 24 25 24 24 23 23 24 23 23 24 23 23 23 23 22 22 21 20 19 19 19 19 19 18 18 18 18 17 17 17 17 17 16 16 16 16 16 15
24 25 25 25 25 25 25 24 24 24 23 22 23 23 22 24 24 24 23 23 22 21 20 20 19 19 19 18 18 18 18 18 18 17 17 17 17 17 16 16 16 16 16 15
24 24 25 25 24 25 24 23 22 22 21 22 25 24 23 24 25 24 23 23 22 21 20 19 19 18 18 18 18 18 18 18 17 17 17 17 17 16 16 16 16 16 16 15
23 23 24 24 24 23 24 23 21 21 21 22 24 23 23 25 24 24 23 22 21 21 20 19 18 18 18 18 17 17 17 17 17 17 17 17 16 16 16 16 16 16 15 15
23 23 24 24 24 24 23 23 24 22 22 22 23 23 23 24 23 23 22 22 21 20 20 19 18 18 17 17 17 17 17 17 17 17 17 16 16 16 16 16 16 16 15 15
23 22 23 24 24 24 23 23 22 22 21 21 22 22 22 22 22 22 22 21 21 20 19 19 18 18 17 17 17 17 17 17 16 16 16 16 16 16 16 16 16 15 15 15
23 22 22 23 22 23 23 22 22 22 22 21 20 21 23 22 22 22 21 21 20 20 19 18 18 17 17 17 16 16 16 16 16 16 16 16 16 16 16 15 15 15 15 15
22 21 21 22 23 24 23 22 22 20 20 21 21 20 23 23 22 22 21 21 20 19 18 18 17 17 17 16 16 16 16 16 16 16 15 15 15 15 15 15 15 15 15 15
21 21 20 20 21 22 22 22 22 21 20 20 20 20 22 22 21 21 21 20 19 19 18 17 17 17 16 16 16 16 15 15 15 15 15 15 15 15 15 15 15 14 14 14
20 20 20 19 20 21 20 21 21 21 19 19 20 20 21 21 20 20 20 19 18 18 17 17 17 16 16 16 16 16 15 15 15 15 15 15 15 15 14 14 14 14 14 14
20 19 20 20 21 21 20 20 20 20 20 19 20 19 20 20 20 20 19 19 18 17 17 17 16 16 16 16 15 15 15 15 15 15 14 14 14 14 14 14 14 14 14 13
20 19 19 19 20 20 20 20 19 20 20 20 20 19 20 20 19 19 19 18 18 17 17 16 16 16 15 15 15 15 15 15 15 14 14 14 14 14 13 13 13 13 13 13
19 19 18 18 19 19 18 19 19 19 20 19 19 19 19 19 18 18 18 17 17 17 16 16 15 15 14 14 14 14 14 14 14 14 14 13 13 13 13 13 13 13 13 12
18 18 18 18 18 17 18 20 19 19 19 19 18 18 18 18 17 17 17 16 16 16 15 15 15 15 14 14 14 14 14 14 14 14 13 13 13 13 12 12 12 12 12 12
18 18 17 17 17 17 18 18 18 18 17 18 17 17 17 16 17 16 16 15 15 15 15 14 14 14 14 14 14 13 13 13 13 13 13 13 13 12 12 12 12 11 11 11
18 18 17 16 16 16 16 17 17 18 16 16 16 16 16 16 15 15 15 14 14 14 14 14 14 14 13 13 13 13 13 13 13 12 12 12 12 12 12 11 11 11 11 11
16 16 15 15 15 16 16 16 17 15 14 15 15 15 15 15 14 14 14 14 13 13 13 13 13 13 13 13 12 12 12 12 12 12 12 12 12 11 11 11 11 10 10 10
15 15 15 15 15 14 15 16 15 14 15 15 14 14 13 13 13 13 13 13 13 12 12 12 12 12 12 12 12 12 12 12 12 12 11 11 11 11 11 10 10 10 10 10
15 15 14 14 14 14 14 14 14 14 14 14 13 13 13 12 12 12 12 12 12 11 11 11 11 11 11 11 11 11 11 11 11 11 11 11 10 10 10 10 10 9 9 9
15 15 14 14 14 14 14 14 13 13 13 12 12 12 12 11 11 11 11 11 11 10 10 10 11 10 10 10 10 10 10 10 10 10 10 10 10 10 9 9 9 9 9 9
14 14 14 13 13 13 13 12 12 12 12 11 11 11 11 11 10 10 10 10 9 9 10 10 9 10 10 10 10 10 9 9 9 9 9 9 9 9 9 9 9 9 9 8
13 13 12 12 12 12 12 11 11 11 11 11 10 10 10 10 10 10 9 9 9 9 9 9 9 9 9 9 9 9 9 9 9 9 9 9 9 8 8 8 8 8 8 8
Wind_Speed
8 8 8 7 7 7 6 6 5 4 4 6 7 7 7 8 7 7 7 7 7 6 7 8 7 7 6 6 5 6 7 5 5 3 3 3 3 2 2 3 4 4 3 4
8 9 8 7 6 7 8 7 6 4 3 5 6 8 7 8 8 6 6 6 7 7 7 7 8 7 6 6 5 6 7 6 6 4 3 4 4 3 3 2 3 3 3 3
9 6 6 7 7 8 8 6 5 5 5 7 7 8 8 8 8 7 6 6 7 6 7 7 6 6 6 6 6 6 6 7 7 5 3 3 3 2 2 2 2 2 3 3
8 6 5 6 7 7 7 5 6 6 7 5 6 5 6 7 9 9 7 5 6 6 6 6 5 6 6 6 5 5 6 6 6 6 4 5 4 3 3 3 2 2 3 3
6 5 6 7 6 7 6 5 7 9 9 9 9 7 5 6 8 9 8 6 6 7 7 6 5 5 5 5 4 4 5 5 5 6 5 5 4 3 2 3 3 3 2 3
8 5 5 6 5 6 6 8 9 9 7 9 10 8 3 3 6 8 8 7 6 7 7 7 7 5 4 5 5 3 4 5 5 5 6 5 5 4 4 3 3 3 2 2
9 9 7 5 6 6 7 6 4 5 6 7 7 6 3 3 5 5 7 7 7 6 6 6 6 6 5 6 5 4 4 5 5 5 5 5 5 5 4 3 3 3 3 2
8 8 8 6 6 5 7 8 5 4 4 4 4 2 2 6 7 6 6 6 7 6 6 6 6 5 5 6 6 5 4 4 5 5 4 5 5 3 3 3 2 2 2 3
5 4 4 5 5 6 7 7 7 8 10 8 4 3 3 6 8 7 6 6 6 6 6 6 6 5 5 5 5 6 5 4 4 4 4 4 4 4 3 3 2 2 1 1
7 6 5 4 5 8 7 7 5 5 5 6 4 3 2 6 7 7 6 5 5 6 6 5 5 5 5 5 4 4 4 4 3 3 3 3 4 4 3 3 2 2 2 2
8 8 6 6 7 7 7 7 6 6 6 5 4 1 2 3 5 5 5 4 5 5 5 5 4 4 5 5 5 4 3 3 2 3 3 3 3 3 4 3 3 2 2 2
5 6 8 7 6 5 7 6 5 5 6 7 6 2 2 3 4 4 4 4 4 5 4 4 4 4 4 5 5 4 3 3 3 2 2 2 2 3 3 3 3 3 2 2
5 5 7 5 4 5 6 6 6 7 7 7 7 2 3 4 3 4 4 4 4 5 4 4 4 3 3 4 4 4 4 4 3 3 2 2 2 2 2 2 2 2 2 1
4 7 9 8 6 5 6 8 8 8 7 8 7 5 3 1 1 2 2 2 3 3 4 3 3 2 2 3 3 4 3 3 3 3 2 2 2 1 2 2 2 2 2 1
4 8 11 11 10 8 8 10 10 10 10 10 8 7 6 4 1 1 1 1 2 2 2 3 3 2 2 2 1 2 3 3 3 3 2 2 2 2 1 1 1 1 1 2
6 8 10 12 12 10 10 11 11 12 11 11 10 7 5 4 2 2 1 0 1 1 2 2 2 2 2 1 1 1 2 4 3 3 3 2 2 2 1 1 1 2 1 1
7 9 10 11 11 10 11 9 10 10 9 7 7 5 3 2 2 2 1 2 0 1 2 1 1 1 1 1 2 1 1 3 4 4 3 3 3 2 1 1 1 1 2 1
10 10 7 8 9 11 4 3 5 6 4 4 4 4 4 4 2 1 2 3 3 2 1 1 1 1 1 1 1 1 0 2 3 3 3 3 3 3 2 1 2 2 1 1
8 8 7 6 8 9 5 4 5 5 4 4 4 4 5 4 2 2 4 4 4 3 3 2 0 1 1 1 1 2 1 2 3 3 3 3 3 3 3 3 2 2 2 2
6 7 7 7 8 8 4 5 6 4 3 6 5 6 5 4 2 2 4 4 4 4 3 2 1 1 0 0 0 1 2 2 4 3 3 3 3 3 3 3 3 2 2 2
3 5 8 10 9 4 3 5 3 2 2 6 7 6 6 4 3 3 3 3 3 3 3 3 2 1 1 1 1 1 1 1 1 2 1 2 2 3 3 3 3 3 2 2
4 4 5 6 7 4 4 3 3 4 5 6 6 6 6 6 5 5 5 3 3 3 3 2 2 2 2 2 2 2 2 2 1 1 1 2 2 3 2 3 3 3 3 3
3 3 3 3 1 2 4 4 5 6 6 6 6 6 6 5 5 5 5 4 3 3 3 2 2 2 3 2 2 2 2 2 1 1 2 2 2 2 2 3 3 3 3 3
3 3 4 4 3 3 4 4 5 6 6 7 6 6 6 5 5 4 4 4 4 4 3 3 2 2 2 2 2 2 2 2 2 2 2 2 2 2 2 2 3 3 3 3
6 4 5 7 5 4 3 4 6 6 6 6 6 6 5 5 5 4 3 3 3 4 3 3 3 3 3 3 3 2 2 2 2 2 2 1 1 2 2 2 2 3 3 4
7 6 5 5 4 4 4 4 5 6 6 6 6 6 6 5 5 4 4 3 4 4 4 3 3 3 4 4 4 3 2 2 2 2 2 2 2 2 2 2 2 4 5 5
Wind_Direction
217 227 235 241 245 260 276 271 272 252 210 231 243 243 215 192 195 199 183 181 181 183 164 159 163 164 160 161 162 154 155 153 134 128 129 125 123 122 116 104 100 95 90 83
222 230 243 253 255 259 268 270 274 272 231 248 256 254 234 200 195 191 191 184 174 173 165 164 165 158 159 167 176 162 157 151 143 141 145 138 134 135 122 99 102 117 115 110
228 234 238 246 253 258 260 266 275 286 291 267 268 263 241 201 189 183 193 188 170 170 166 159 160 157 159 169 182 177 161 154 148 145 136 130 115 111 110 117 117 110 102 96
243 245 246 248 249 260 264 267 275 270 267 261 244 270 246 196 186 182 183 183 159 148 142 147 147 146 163 172 178 170 157 153 147 147 144 139 138 146 150 139 137 136 117 111
245 248 250 252 254 258 269 284 272 264 264 269 249 250 245 187 191 181 174 167 153 148 149 148 139 144 159 162 162 162 153 148 141 146 153 153 152 158 146 139 146 149 145 134
250 254 262 264 260 255 267 269 263 252 255 256 242 236 242 196 176 164 162 155 146 141 142 144 139 143 148 139 139 146 149 139 139 156 160 162 166 165 158 158 165 172 161 157
234 231 229 246 256 232 244 258 260 234 225 243 233 226 202 151 130 131 141 142 137 131 133 134 140 148 143 143 147 149 147 152 157 165 167 173 177 166 159 163 173 176 171 166
242 227 209 220 245 257 248 247 251 270 269 285 266 232 138 121 109 106 112 120 127 136 136 136 135 134 142 147 149 155 160 157 161 172 183 180 165 158 159 165 169 176 171 170
280 246 193 215 238 252 258 250 252 266 278 274 237 194 140 119 115 116 118 117 124 131 130 136 136 138 142 139 152 155 155 156 168 176 183 175 164 159 166 176 156 151 151 156
282 275 233 209 231 231 250 277 278 256 268 265 247 236 192 156 138 128 129 131 128 126 127 126 132 134 139 138 137 150 153 161 167 175 191 177 162 158 162 164 163 167 163 148
281 274 248 220 228 244 231 243 259 266 262 271 275 285 41 106 118 125 129 128 132 129 124 123 127 140 142 141 144 154 158 156 165 175 186 173 164 166 160 163 167 168 163 169
273 276 266 248 241 245 253 258 258 262 271 276 278 256 104 112 109 109 115 115 112 113 116 124 133 134 144 151 157 163 163 168 166 175 179 169 162 165 164 165 167 171 178 190
315 269 267 252 233 226 244 258 269 276 275 269 268 239 103 87 84 85 84 96 108 113 115 117 125 136 142 153 162 167 175 176 159 152 154 146 153 167 169 166 151 149 157 173
303 268 267 269 286 282 270 269 271 269 264 270 271 276 276 309 80 76 80 97 106 114 122 122 127 139 143 147 164 165 170 161 146 142 145 148 145 151 159 159 151 151 152 159
276 269 276 281 284 283 273 275 272 268 270 268 278 283 297 309 340 50 70 109 123 120 122 131 132 140 152 149 154 153 159 150 148 143 146 144 136 125 115 137 155 144 164 172
265 272 276 275 274 278 275 268 266 263 267 271 276 279 291 302 329 358 7 10 135 143 157 136 146 164 155 148 176 166 168 158 154 157 163 148 137 118 106 167 189 181 187 178
262 268 275 272 268 275 266 260 260 260 264 272 280 299 336 340 343 348 344 340 349 150 135 123 163 202 188 188 187 205 202 179 174 175 173 164 161 151 176 202 199 199 195 194
271 274 271 271 271 259 265 330 302 282 291 320 330 353 357 351 352 4 41 16 11 18 52 141 212 224 217 197 175 167 245 195 174 179 174 171 173 171 174 200 199 203 209 198
257 262 266 266 265 263 270 317 318 300 297 341 342 353 357 353 0 28 35 22 10 6 352 335 259 244 234 209 203 190 207 208 190 189 178 174 179 185 189 199 215 208 200 205
257 257 258 260 263 268 314 342 327 290 271 18 13 0 353 351 319 324 3 12 2 354 341 344 2 336 289 303 254 229 221 211 195 191 189 181 183 193 198 200 213 214 204 206
245 249 250 261 262 272 340 348 346 295 354 8 10 5 354 344 350 333 340 356 355 351 347 350 357 356 1 9 4 310 288 282 191 157 170 194 197 199 197 200 210 201 195 195
266 265 254 258 258 267 24 6 354 2 5 1 4 9 5 2 8 5 3 7 5 1 354 360 14 10 11 24 33 7 341 352 11 119 171 221 208 206 203 189 203 195 185 194
264 288 296 295 304 43 17 15 5 1 351 356 0 358 359 355 351 356 357 359 360 355 352 7 18 4 355 4 14 342 334 351 346 244 212 222 223 214 198 189 198 203 193 194
282 316 297 293 287 323 339 359 358 355 354 355 353 349 347 341 340 348 349 349 346 345 347 350 356 338 334 339 338 315 321 320 298 259 231 222 222 229 213 197 196 199 199 197
302 299 282 278 289 300 328 356 357 353 351 351 349 347 347 343 337 340 345 349 349 344 345 348 344 341 332 330 333 328 334 331 308 282 248 230 242 238 231 215 203 200 201 193
283 285 278 284 306 309 319 344 349 341 342 350 348 347 350 345 335 341 347 351 351 349 349 340 337 340 336 335 338 339 339 323 301 282 265 237 229 235 227 220 241 223 210 199
Height
1482 1484 1486 1484 1482 1483 1483 1485 1488 1485 1481 1485 1487 1487 1485 1486 1488 1489 1491 1494 1496 1498 1501 1503 1506 1508 1511 1513 1515 1517 1518 1520 1522 1523 1525 1526 1527 1528 1529 1530 1530 1531 1531 1532
1481 1484 1480 1478 1478 1480 1482 1486 1487 1483 1479 1482 1484 1484 1481 1482 1484 1486 1488 1491 1493 1496 1499 1502 1504 1506 1508 1511 1513 1515 1517 1518 1520 1522 1523 1525 1526 1527 1528 1529 1530 1530 1531 1532
1480 1479 1476 1477 1479 1482 1483 1485 1486 1486 1482 1480 1484 1486 1480 1477 1480 1483 1486 1488 1491 1494 1497 1499 1502 1504 1506 1509 1511 1513 1515 1517 1519 1520 1522 1524 1525 1527 1528 1528 1529 1530 1531 1531
1476 1474 1475 1478 1480 1482 1486 1480 1481 1484 1489 1490 1486 1497 1481 1475 1477 1479 1483 1486 1488 1491 1495 1497 1500 1502 1504 1507 1509 1511 1513 1515 1517 1519 1520 1522 1523 1525 1526 1527 1528 1529 1530 1531
1477 1475 1476 1479 1479 1479 1481 1478 1480 1482 1486 1489 1483 1491 1483 1473 1477 1477 1479 1483 1487 1490 1493 1496 1498 1500 1503 1505 1507 1509 1511 1513 1515 1516 1518 1520 1522 1523 1525 1526 1527 1528 1529 1530
1474 1474 1474 1475 1475 1476 1477 1479 1479 1479 1486 1497 1482 1486 1486 1474 1472 1473 1476 1481 1485 1488 1491 1494 1496 1498 1501 1503 1505 1507 1509 1511 1513 1515 1517 1518 1520 1522 1523 1524 1526 1527 1528 1529
1476 1473 1473 1474 1476 1476 1478 1487 1496 1497 1499 1492 1471 1476 1481 1468 1467 1470 1474 1479 1483 1487 1490 1493 1495 1497 1499 1501 1503 1505 1508 1509 1511 1513 1515 1516 1518 1520 1521 1523 1524 1525 1526 1527
1479 1479 1472 1472 1476 1479 1478 1482 1499 1507 1500 1489 1474 1477 1474 1464 1467 1471 1475 1478 1482 1486 1489 1492 1494 1495 1497 1499 1501 1503 1506 1507 1509 1511 1513 1515 1516 1518 1519 1521 1522 1523 1524 1525
1478 1478 1469 1470 1472 1475 1479 1479 1477 1488 1487 1491 1481 1474 1471 1466 1470 1473 1476 1479 1482 1486 1488 1490 1493 1494 1496 1497 1500 1502 1504 1506 1507 1509 1511 1513 1514 1516 1517 1519 1520 1521 1522 1523
1475 1480 1471 1470 1472 1472 1475 1477 1481 1487 1496 1497 1484 1479 1480 1473 1472 1474 1477 1480 1482 1485 1487 1490 1491 1493 1495 1497 1499 1501 1502 1504 1506 1508 1509 1511 1513 1514 1515 1517 1518 1519 1520 1521
1475 1479 1475 1472 1474 1475 1476 1478 1479 1482 1482 1493 1496 1490 1471 1471 1472 1474 1476 1479 1482 1484 1486 1488 1490 1492 1494 1495 1497 1499 1501 1502 1504 1506 1507 1509 1511 1512 1513 1514 1515 1516 1517 1518
1476 1479 1479 1473 1468 1468 1471 1474 1479 1491 1488 1482 1487 1489 1468 1469 1471 1474 1476 1479 1481 1484 1485 1487 1489 1491 1493 1494 1496 1497 1499 1500 1502 1504 1505 1507 1509 1510 1511 1512 1512 1514 1515 1515
1479 1481 1486 1483 1479 1473 1473 1473 1475 1479 1483 1485 1490 1488 1469 1470 1472 1475 1477 1479 1481 1483 1485 1487 1488 1490 1492 1493 1494 1496 1497 1499 1500 1501 1503 1505 1506 1507 1508 1509 1510 1511 1512 1513
1481 1481 1485 1491 1483 1477 1478 1477 1475 1479 1487 1486 1484 1482 1475 1473 1475 1476 1478 1480 1481 1483 1484 1486 1488 1489 1490 1492 1493 1494 1496 1497 1498 1500 1501 1502 1503 1504 1505 1506 1507 1508 1509 1510
1480 1482 1478 1475 1473 1474 1477 1478 1476 1478 1478 1482 1480 1479 1477 1474 1475 1476 1478 1480 1481 1483 1484 1485 1486 1488 1489 1490 1491 1492 1494 1495 1497 1498 1499 1500 1501 1502 1503 1504 1504 1505 1506 1507
1479 1480 1478 1478 1474 1473 1475 1475 1475 1475 1474 1474 1475 1476 1473 1474 1475 1476 1478 1479 1480 1482 1483 1484 1485 1486 1487 1488 1489 1490 1492 1493 1495 1496 1497 1498 1499 1499 1500 1501 1501 1502 1503 1504
1479 1480 1482 1482 1475 1475 1478 1472 1472 1472 1471 1472 1476 1476 1473 1474 1475 1476 1477 1478 1480 1481 1482 1482 1484 1485 1485 1486 1487 1488 1489 1491 1492 1493 1494 1495 1496 1496 1497 1498 1498 1499 1500 1501
1479 1479 1480 1480 1480 1487 1475 1467 1468 1468 1470 1471 1473 1474 1474 1475 1475 1476 1478 1478 1479 1480 1481 1481 1482 1483 1484 1484 1485 1486 1487 1488 1489 1490 1491 1492 1493 1493 1494 1495 1495 1496 1496 1497
1476 1478 1481 1482 1483 1478 1472 1470 1470 1471 1473 1472 1473 1473 1474 1474 1474 1476 1477 1478 1478 1479 1480 1480 1480 1481 1481 1482 1483 1483 1484 1485 1486 1487 1488 1489 1490 1490 1491 1491 1491 1492 1493 1494
1474 1475 1480 1480 1484 1483 1477 1471 1469 1471 1476 1474 1474 1474 1474 1475 1477 1477 1477 1477 1477 1478 1478 1479 1479 1479 1479 1480 1480 1481 1481 1482 1483 1483 1484 1485 1486 1487 1487 1488 1489 1489 1490 1491
1479 1479 1481 1481 1482 1477 1475 1473 1471 1480 1482 1477 1476 1476 1476 1476 1477 1477 1476 1476 1476 1476 1476 1477 1477 1477 1477 1477 1478 1478 1479 1479 1480 1481 1481 1482 1483 1483 1484 1485 1485 1486 1487 1488
1480 1482 1481 1480 1483 1484 1476 1474 1478 1480 1478 1477 1477 1478 1477 1477 1475 1475 1474 1474 1474 1474 1474 1474 1475 1475 1475 1475 1475 1475 1476 1476 1476 1477 1477 1478 1479 1480 1481 1481 1482 1482 1483 1484
1477 1479 1479 1480 1483 1480 1478 1479 1479 1478 1478 1478 1478 1478 1477 1476 1475 1474 1474 1473 1473 1473 1473 1473 1473 1472 1473 1473 1473 1473 1473 1473 1473 1473 1474 1474 1475 1476 1477 1477 1478 1479 1479 1480
1476 1477 1478 1479 1477 1478 1478 1479 1478 1478 1478 1477 1477 1476 1476 1475 1474 1473 1473 1472 1472 1472 1471 1471 1471 1471 1471 1471 1471 1470 1470 1470 1470 1470 1471 1471 1471 1472 1473 1474 1474 1475 1475 1477
1478 1478 1478 1478 1478 1478 1477 1478 1478 1478 1477 1476 1476 1475 1475 1474 1473 1473 1472 1471 1470 1470 1470 1470 1469 1469 1468 1468 1468 1468 1467 1467 1467 1467 1468 1468 1468 1469 1469 1470 1470 1471 1472 1473
1479 1479 1479 1479 1478 1478 1477 1477 1477 1477 1476 1475 1475 1474 1474 1473 1472 1471 1470 1469 1469 1468 1468 1467 1467 1466 1466 1465 1464 1464 1464 1464 1464 1464 1464 1464 1464 1465 1465 1466 1467 1468 1469 1470